Theta_e
323 324 326 329 330 330 331 331 331 331 330 331 331 330 329 330 331 332 333 333 331 329 328 327 326 325 325 325 326 326 325 325 325 324 324 324 324 324 326 327 327 327 325 321 316 311 310 310 310 310 310 307 303 301 299 297 296 295 294 293 293 293 293 292 291 290 290 290 290 290 290 290 290 290
322 322 324 326 328 329 330 330 330 331 331 331 331 331 330 330 330 331 332 333 330 328 328 327 326 327 327 326 327 327 327 328 329 327 326 326 325 325 326 326 327 327 324 320 315 311 309 310 310 310 309 305 302 300 297 295 294 294 294 294 294 293 292 291 290 290 290 290 290 290 290 290 289 289
321 321 322 324 326 327 328 329 329 330 330 331 331 331 331 330 331 330 330 332 330 328 329 328 326 328 329 328 328 328 328 329 329 328 328 327 326 326 326 326 326 326 323 319 315 311 310 310 310 309 308 304 301 298 296 295 294 294 294 294 293 293 292 291 290 290 290 290 290 290 290 290 289 289
320 321 321 322 323 325 327 328 329 330 330 331 331 330 330 330 331 330 330 330 330 328 328 328 327 328 329 329 329 329 330 329 329 329 328 329 328 326 326 326 325 324 321 317 314 311 309 310 309 308 306 303 299 296 295 294 294 294 294 294 293 292 291 290 289 290 290 290 290 290 290 289 289 289
319 320 320 321 322 323 325 326 328 329 330 330 330 330 330 330 330 331 330 330 329 328 328 328 327 327 328 329 329 329 329 327 327 328 328 328 328 326 326 325 323 322 319 315 313 311 309 309 308 307 305 301 297 295 295 295 294 294 294 293 293 292 291 290 289 290 290 290 290 290 290 289 289 289
318 319 319 320 321 321 323 324 326 328 329 329 330 330 330 330 330 330 330 330 329 329 328 328 328 327 327 327 327 328 328 326 325 325 325 327 327 326 326 324 321 319 317 315 312 310 308 308 307 306 304 300 296 295 295 294 294 294 293 293 292 292 291 289 289 290 290 290 289 289 289 289 289 289
316 318 319 319 320 320 321 322 324 326 327 328 329 329 330 330 329 329 329 329 329 328 327 327 328 327 326 326 326 327 327 326 325 324 323 324 324 324 324 324 321 317 315 314 311 309 308 307 306 305 302 298 295 295 295 294 294 293 293 293 292 292 291 289 289 289 289 289 289 289 289 289 289 289
314 316 317 318 319 320 320 321 322 324 326 327 327 328 329 329 329 329 328 328 327 327 327 326 327 327 326 325 325 326 326 324 324 323 321 321 320 320 321 323 321 317 314 313 311 309 308 307 305 303 299 296 295 295 294 294 294 293 293 292 292 291 290 289 289 289 289 289 289 289 289 289 289 288
313 314 315 316 318 319 320 320 321 322 323 324 326 327 328 329 329 329 328 328 327 326 326 326 326 327 326 325 325 325 324 321 319 320 319 318 316 315 316 319 319 316 313 312 311 309 308 306 304 300 297 296 296 295 294 294 293 293 292 292 292 291 290 289 289 289 289 289 289 289 289 289 288 288
312 313 314 315 316 317 319 319 320 321 322 323 324 326 327 328 329 329 329 328 327 326 326 325 326 327 326 325 324 324 323 319 315 316 316 314 313 313 314 315 315 314 312 311 310 309 307 305 301 297 296 296 295 295 294 293 293 293 292 292 292 291 290 289 289 289 289 289 289 289 289 288 288 288
310 311 312 313 314 316 317 318 319 319 321 322 323 324 325 327 328 329 329 329 328 328 326 325 326 327 326 324 323 322 321 317 313 313 312 308 308 310 311 311 311 311 310 309 307 307 305 301 298 296 296 295 295 294 294 293 293 292 292 292 292 291 290 289 289 289 289 289 289 289 288 288 288 288
309 310 311 312 313 314 315 317 318 319 319 321 322 323 324 325 327 328 329 329 329 329 327 326 327 327 325 324 323 320 317 312 310 311 310 306 305 305 306 308 308 308 307 306 305 303 300 297 295 295 295 295 294 294 293 293 292 292 292 292 292 291 290 289 289 289 289 289 288 288 288 288 288 288
309 309 310 311 312 312 313 314 316 317 318 319 320 321 322 324 326 327 328 329 329 329 328 327 327 327 325 324 322 318 314 310 308 308 309 307 304 303 302 303 305 306 305 303 300 298 296 295 295 295 294 294 294 294 293 292 292 292 292 292 292 291 290 289 288 288 289 288 288 288 288 288 288 288
308 308 309 310 311 311 312 312 313 314 316 317 318 319 319 320 323 326 328 328 328 328 328 328 328 327 325 324 321 317 315 311 308 307 307 305 303 301 300 299 300 302 302 299 296 295 295 295 295 295 294 294 294 294 293 292 292 292 292 292 292 291 289 288 288 288 288 288 288 288 288 288 288 288
306 306 307 308 309 310 311 311 312 313 314 315 316 317 318 318 319 321 323 326 327 328 327 327 328 326 325 324 321 318 315 311 308 307 306 304 302 301 300 298 298 298 298 296 295 295 295 295 295 295 294 294 295 294 293 293 293 293 292 292 291 290 289 288 288 288 288 288 288 288 288 288 288 288
304 304 305 306 307 308 309 311 311 312 313 314 316 316 317 318 318 318 319 321 325 327 327 326 327 326 325 323 320 317 314 310 308 307 306 304 303 301 301 300 299 297 296 296 295 295 295 294 294 293 293 294 294 294 293 293 293 293 292 292 292 291 290 288 288 288 288 288 288 288 288 288 288 288
303 303 304 304 305 306 307 308 310 311 312 313 315 316 316 316 317 318 317 318 320 324 327 327 327 326 325 322 319 316 314 311 309 308 306 305 304 303 302 302 300 298 296 296 296 296 295 294 293 293 293 293 294 294 293 293 293 294 294 293 293 292 291 289 288 288 288 288 288 288 288 288 288 288
302 302 302 303 303 304 305 306 308 310 311 313 315 317 318 317 316 317 317 317 317 319 323 326 326 325 325 324 320 316 314 311 309 309 307 306 305 304 304 303 302 299 297 296 297 296 295 294 293 293 293 293 294 294 293 293 294 296 296 295 294 293 292 290 288 288 288 288 288 288 288 288 288 287
300 301 301 301 302 302 303 304 305 307 309 311 313 315 317 318 318 317 318 318 318 317 320 323 326 326 326 324 321 317 315 312 311 310 309 308 307 306 305 304 302 300 297 297 298 298 296 295 294 294 294 294 294 294 294 294 296 296 296 295 294 294 292 290 288 288 288 288 288 288 288 287 287 287
299 299 300 300 301 301 302 302 303 304 306 307 308 310 312 315 319 320 319 319 319 319 318 320 323 325 326 324 321 317 315 313 311 310 310 309 307 306 305 303 301 299 298 298 299 299 297 295 295 295 295 296 295 295 295 295 296 296 295 294 294 293 291 289 288 288 288 288 288 288 287 287 287 287
298 299 299 299 300 300 301 301 302 303 303 304 305 307 308 311 315 319 321 320 321 321 320 319 320 323 326 326 323 320 316 313 311 310 309 309 307 306 304 301 300 299 298 298 299 299 297 296 296 296 297 297 297 296 296 296 296 295 294 294 293 291 289 288 288 288 288 288 288 288 289 289 289 289
298 298 298 299 299 300 300 301 301 302 302 303 303 305 307 309 312 316 320 322 322 323 323 321 319 321 325 327 326 322 317 313 312 311 310 309 308 307 304 301 300 299 299 298 300 300 298 296 296 297 297 296 297 296 296 296 296 295 294 293 292 290 288 288 289 289 289 289 289 290 291 291 290 290
297 297 298 298 298 299 299 300 300 301 301 302 303 304 306 309 311 314 318 321 322 323 324 323 322 323 326 327 325 321 316 314 313 313 312 310 308 307 305 302 300 300 299 299 300 300 298 297 297 297 296 295 295 296 296 296 296 295 294 292 290 289 288 289 290 291 291 291 291 292 292 291 291 291
297 297 297 298 298 298 299 299 299 300 300 301 302 302 304 307 311 314 318 321 322 322 323 324 324 324 326 326 324 319 315 314 314 314 313 311 309 308 305 302 301 302 300 299 300 301 300 298 298 297 297 297 295 295 295 296 295 294 294 292 290 290 290 291 292 292 292 292 292 292 292 292 291 291
297 297 297 297 298 298 298 299 299 299 299 300 300 301 302 304 307 311 315 318 321 322 322 323 323 323 324 324 322 317 314 313 313 313 312 311 309 308 306 303 302 302 301 299 300 301 300 299 298 297 297 297 296 294 294 295 295 295 294 293 292 292 293 293 293 293 293 293 293 293 293 292 292 292
297 297 297 297 297 298 298 299 299 299 300 300 300 300 300 301 303 306 308 312 318 321 321 320 320 320 321 320 317 315 314 313 312 311 311 310 309 309 308 306 305 305 303 301 301 301 299 299 298 297 297 297 297 295 294 294 295 295 294 294 294 294 294 294 293 293 293 293 293 293 293 293 292 292
296 296 297 297 297 298 298 298 299 300 300 300 300 300 301 301 302 303 303 308 315 319 318 317 316 316 316 315 313 312 312 311 310 310 310 309 308 308 307 306 307 308 307 303 301 300 300 299 298 297 297 298 297 295 295 295 295 295 294 294 294 294 294 294 294 293 293 293 293 293 293 293 292 292
295 296 296 296 296 297 298 298 299 300 301 301 301 302 302 302 302 302 303 307 314 316 315 314 313 312 313 312 311 310 309 309 309 309 309 308 308 308 307 306 306 307 307 303 300 299 300 299 298 297 298 299 297 296 296 296 295 295 294 295 294 294 294 294 294 294 294 293 293 293 293 292 292 293
295 295 295 295 296 297 298 299 299 300 301 302 302 303 303 303 303 302 304 309 313 313 312 312 311 310 310 310 309 309 308 308 308 308 307 307 307 307 306 305 305 305 304 302 300 299 299 298 298 298 298 298 297 297 297 296 296 295 295 295 294 294 295 294 294 294 293 293 293 293 292 292 292 293
293 293 294 295 295 296 298 300 300 300 301 302 303 304 304 304 304 304 307 310 312 311 311 310 309 308 308 307 307 307 307 306 307 307 306 305 304 305 305 304 303 302 302 300 299 298 298 298 298 298 297 297 297 297 297 296 295 295 295 294 294 294 294 293 293 293 293 293 293 292 292 292 293 293
292 293 294 295 296 296 298 300 300 301 302 302 304 305 305 304 304 306 309 312 312 311 309 308 306 306 306 305 304 304 304 303 303 304 305 303 301 302 302 301 298 298 299 298 297 297 297 298 298 297 296 296 295 295 296 295 295 294 294 294 294 293 293 293 293 293 293 293 292 292 292 293 293 293
293 295 296 296 296 296 298 299 300 300 301 302 303 305 306 305 306 309 311 312 311 309 307 305 304 303 303 303 302 301 301 300 300 302 303 301 299 299 299 297 294 295 296 295 295 296 297 297 296 295 294 295 295 294 294 295 295 294 294 294 293 293 293 293 293 293 292 292 291 292 292 292 292 292
293 295 297 297 297 297 298 299 299 300 301 303 304 306 307 307 309 311 311 310 308 306 305 304 302 301 301 300 299 299 298 297 297 299 300 299 297 296 296 294 293 293 294 294 294 295 295 295 294 294 293 294 294 293 293 294 294 294 294 293 293 293 293 293 293 292 292 291 291 292 292 292 292 292
294 295 297 297 297 298 299 299 300 301 302 303 305 307 308 309 310 310 309 307 305 304 303 302 301 300 298 297 297 297 295 294 294 295 296 295 294 294 293 292 292 293 293 293 293 294 294 294 294 293 293 293 293 293 293 294 294 294 293 293 293 293 292 292 292 291 291 291 292 292 292 292 291 291
295 296 297 298 298 299 300 300 301 302 302 303 304 306 307 308 308 307 306 304 303 302 301 300 299 298 297 296 296 295 294 293 293 293 293 293 293 292 292 291 291 292 292 292 292 292 293 293 293 293 293 292 292 292 293 293 293 293 292 292 292 292 292 291 291 290 290 291 291 291 291 291 291 290
297 298 298 299 299 300 300 301 301 301 302 302 303 304 304 304 304 305 304 303 302 301 299 298 297 296 296 295 295 294 293 292 292 292 292 292 292 291 291 291 291 291 291 291 291 291 292 292 291 291 291 291 292 292 291 290 291 292 291 291 291 291 291 290 290 290 291 291 291 291 291 290 290 290
298 299 299 299 299 300 300 301 301 301 301 301 302 302 301 301 301 301 302 302 301 299 298 297 296 295 295 294 293 292 292 292 291 291 291 291 291 291 290 290 290 290 290 290 289 290 290 290 289 290 290 292 294 293 290 287 288 290 290 290 290 289 289 289 289 290 290 290 290 290 290 290 290 290
298 298 298 299 299 299 300 300 300 300 300 300 300 300 299 299 298 298 299 299 298 297 296 296 295 294 294 293 292 292 291 291 291 291 291 291 290 290 290 290 290 290 290 290 290 290 291 291 290 291 292 293 295 293 289 287 288 287 287 288 288 288 288 289 289 289 290 290 290 289 289 289 289 289
296 297 297 298 298 298 298 298 299 299 299 299 298 298 297 297 296 296 296 296 296 295 295 294 294 293 293 292 292 292 291 291 291 291 291 291 290 290 290 290 290 290 291 291 292 292 292 292 292 292 293 293 293 292 290 289 288 287 287 287 287 287 287 287 288 288 288 289 288 289 289 289 289 288
294 295 295 296 296 297 297 297 297 297 297 297 296 296 295 295 295 295 295 294 294 294 294 293 293 292 292 292 292 291 291 291 291 291 290 290 290 291 291 291 291 291 292 292 292 292 292 292 292 292 292 292 292 291 290 289 288 287 288 288 288 287 286 286 286 287 288 288 288 289 289 289 288 288
292 292 293 294 295 295 295 296 296 296 295 295 295 294 294 294 294 294 294 293 293 293 292 292 292 292 292 292 291 291 291 290 290 291 291 291 291 291 291 291 291 291 291 291 291 291 291 290 290 290 290 290 290 291 290 289 288 288 288 289 288 288 288 287 287 288 288 288 288 289 289 288 288 288
290 291 291 292 292 293 293 294 294 294 294 293 293 293 293 293 293 292 292 292 292 292 291 291 291 291 291 291 291 291 290 290 290 290 291 290 290 291 291 291 291 291 290 290 290 290 289 288 288 289 290 290 290 290 290 290 289 289 289 289 288 289 289 289 288 289 289 289 288 288 288 288 288 288
289 290 290 290 291 291 291 292 292 292 292 292 292 292 292 292 291 291 291 291 291 291 291 291 290 290 290 290 290 290 290 290 290 290 290 290 290 290 291 291 291 290 289 288 287 287 287 288 289 290 290 290 290 290 290 290 290 289 289 289 288 289 290 290 289 289 289 289 289 289 288 288 288 288
289 289 289 289 290 290 290 290 290 290 290 290 291 291 291 290 290 290 290 290 290 290 290 290 290 290 290 290 290 290 290 290 290 290 290 290 290 291 291 290 289 288 287 286 287 288 289 289 290 289 289 289 289 289 290 290 289 289 289 289 289 289 290 289 289 289 290 290 289 289 288 288 288 288
288 288 288 288 289 289 289 289 289 289 290 289 289 290 290 289 289 289 289 289 290 290 290 290 290 290 290 290 289 289 289 289 290 290 290 290 290 290 290 289 287 286 286 287 289 289 290 289 289 288 288 288 288 289 289 289 289 289 289 289 289 289 289 289 289 290 290 290 290 289 289 288 288 288
Wind_Speed
22 22 22 23 25 26 26 27 28 29 30 27 25 24 20 14 8 5 6 6 6 12 16 16 19 23 25 26 28 28 26 25 27 30 32 32 32 33 35 36 34 33 33 30 28 28 26 25 25 23 21 20 18 16 15 14 14 12 11 10 9 9 7 6 5 5 5 5 5 5 6 6 7 8
23 23 22 22 24 25 26 26 26 27 29 30 29 28 26 24 18 10 7 8 10 14 15 17 19 14 21 28 28 29 28 26 28 31 32 32 32 32 34 35 35 34 33 30 29 29 28 27 26 23 22 21 19 17 15 15 14 13 11 10 10 9 7 5 5 4 4 5 5 6 6 7 7 8
23 23 23 23 23 24 25 26 27 27 27 28 30 30 29 28 26 21 12 7 14 18 14 17 21 12 16 28 29 29 29 29 30 30 31 31 31 32 33 34 36 35 34 32 31 30 29 27 26 24 23 21 19 17 16 15 14 13 12 10 10 8 6 5 5 4 4 4 5 6 6 7 7 8
23 23 23 24 23 24 25 26 26 27 27 28 28 29 30 30 28 27 20 10 14 24 19 18 24 18 11 19 27 30 28 29 30 28 30 31 31 33 33 34 36 36 34 33 32 31 29 28 26 25 23 21 19 18 16 15 14 13 12 11 10 8 6 6 5 5 5 5 5 6 6 6 7 7
24 24 24 24 24 24 24 26 26 26 27 28 29 30 30 31 30 29 26 16 14 23 24 21 25 21 13 12 20 28 28 28 27 26 28 30 32 35 35 36 37 36 35 34 32 31 29 28 27 25 23 21 19 18 17 15 14 13 12 11 9 8 6 6 6 5 5 5 6 6 6 6 6 7
23 25 25 25 25 24 25 26 27 27 27 27 28 30 30 31 32 31 30 22 15 18 21 22 23 20 14 13 17 25 28 29 27 25 26 30 34 36 37 38 38 36 35 34 32 31 30 28 27 25 23 20 19 19 17 16 15 13 12 11 9 8 7 6 6 6 5 5 6 5 6 6 6 7
24 25 26 25 25 25 25 26 27 27 28 28 28 29 29 29 31 32 32 28 22 19 20 23 24 20 16 17 21 26 29 30 29 25 25 30 35 37 38 38 38 37 35 32 31 31 29 28 27 25 23 21 20 19 18 16 15 13 12 11 9 8 7 7 7 6 6 6 5 5 6 6 6 7
25 26 27 26 25 25 26 26 27 27 28 28 28 29 29 29 30 32 33 33 29 23 20 24 28 22 18 21 27 29 29 30 30 28 27 31 34 36 37 38 37 36 33 31 31 31 29 28 27 25 23 22 21 19 18 16 15 14 13 11 10 9 8 7 7 7 6 6 5 5 6 6 6 7
25 26 28 28 26 26 26 26 25 25 27 28 29 29 29 29 30 30 32 33 32 28 24 24 26 23 20 23 29 32 32 29 26 26 28 31 31 30 33 37 38 36 33 33 32 31 29 28 27 25 24 23 21 19 18 17 16 14 13 11 10 9 9 8 8 7 6 6 5 6 6 6 6 7
27 27 28 28 28 27 27 27 27 25 25 27 29 31 30 28 29 29 30 30 31 31 29 25 23 22 24 27 27 31 35 32 29 28 26 26 27 27 31 35 36 36 36 35 34 32 30 29 27 26 24 22 21 19 19 18 16 15 13 12 11 10 9 9 9 8 7 6 6 6 6 6 6 8
29 29 28 29 30 29 28 28 29 29 28 26 27 30 32 30 29 28 28 28 28 29 28 26 23 22 27 29 25 29 36 33 31 32 29 25 25 28 32 35 36 37 38 36 34 33 31 29 27 25 23 22 21 20 19 19 17 16 14 13 12 11 10 10 9 8 7 6 6 6 6 6 7 8
29 29 30 30 30 31 31 29 29 30 31 29 27 27 29 30 31 30 27 26 26 27 25 25 24 23 26 28 24 26 32 30 28 33 35 32 31 31 32 34 37 39 39 37 35 33 31 29 27 25 24 23 22 21 20 20 19 17 15 14 13 12 11 10 9 8 7 7 7 7 7 7 8 9
29 29 30 31 31 32 33 34 33 32 32 32 31 29 27 26 27 30 29 26 25 26 24 23 23 23 24 27 26 26 30 30 30 35 36 33 32 32 29 30 35 40 41 39 36 35 33 32 30 28 27 27 25 24 23 22 21 19 17 15 13 12 11 10 9 8 8 7 7 7 7 7 8 9
28 29 29 30 31 32 34 36 38 38 37 37 37 37 35 30 26 26 26 25 25 25 23 22 23 22 23 28 31 30 32 33 34 37 35 29 29 28 23 22 28 36 39 38 36 36 35 33 32 31 31 31 29 28 27 25 22 19 18 15 13 12 11 10 10 9 8 8 8 7 8 8 9 10
29 30 30 30 31 31 33 34 37 39 40 40 41 42 42 40 36 30 26 24 25 24 23 22 23 23 24 31 36 34 33 34 36 39 37 32 32 30 23 19 24 34 40 38 35 34 35 35 35 34 34 33 31 30 28 25 21 19 17 15 13 11 10 9 9 9 9 8 8 8 8 8 9 10
31 31 31 31 31 32 32 31 32 35 37 38 40 43 45 46 45 41 35 29 26 24 23 23 26 26 25 29 34 35 35 36 36 36 36 35 35 33 28 25 26 34 41 39 33 32 34 35 34 34 34 33 31 29 27 23 20 18 16 15 13 11 9 9 10 10 9 8 8 8 8 8 9 10
33 33 33 32 33 33 33 33 32 32 34 35 35 39 44 48 48 48 45 41 34 29 26 26 28 29 27 27 32 37 38 38 37 34 33 34 35 34 33 32 31 35 42 40 32 28 31 33 32 31 32 32 31 28 26 23 20 17 16 15 13 12 10 10 11 10 9 9 8 8 8 9 10 11
34 35 34 34 34 33 33 34 33 31 31 32 31 32 37 43 48 48 48 48 45 38 32 30 30 31 32 34 38 41 42 42 43 42 39 39 38 36 33 31 29 33 42 42 31 23 26 32 30 29 29 29 29 27 24 23 19 15 16 15 14 14 13 12 12 11 10 9 8 8 8 9 10 11
35 36 36 36 36 35 34 35 35 33 32 32 31 31 30 34 40 42 43 44 45 43 39 37 34 32 33 35 38 42 45 46 48 49 47 44 40 33 26 24 24 30 38 40 29 20 24 31 29 25 25 26 27 25 23 21 18 16 16 16 15 15 14 13 12 11 10 9 8 8 8 9 9 10
35 36 38 39 38 38 37 36 36 37 37 37 37 35 33 31 32 35 38 38 40 42 43 42 40 36 32 31 33 40 45 47 45 43 38 35 33 28 22 21 25 30 36 39 31 21 22 30 29 23 21 23 26 26 23 21 18 17 16 16 16 16 15 14 13 12 10 9 9 8 7 7 8 9
35 36 37 38 38 38 38 37 37 38 39 40 40 37 34 33 31 32 33 34 36 38 40 43 45 42 37 34 35 40 45 48 46 39 32 32 35 30 20 17 23 29 35 37 32 22 22 29 29 22 20 23 25 25 23 21 18 17 17 16 16 16 15 14 13 10 9 8 8 7 6 6 7 9
36 36 36 37 38 38 37 36 36 37 38 40 41 37 33 32 32 31 29 29 30 32 34 40 45 44 40 36 37 42 46 49 48 42 37 38 39 33 23 19 21 23 29 36 31 21 21 28 27 21 18 19 23 24 22 20 19 18 17 16 16 16 15 13 11 8 7 7 6 5 5 6 6 9
36 36 36 37 38 40 39 38 37 37 37 39 40 36 32 30 31 31 29 27 28 28 31 37 41 42 40 36 35 40 46 50 51 48 45 44 41 34 28 26 22 14 19 34 34 22 21 29 28 23 18 12 15 22 22 19 19 18 16 15 15 15 14 11 8 6 6 5 5 5 5 6 7 9
34 35 35 36 37 39 39 40 42 42 42 42 41 37 34 31 29 28 27 26 29 30 30 35 38 38 38 36 35 40 46 50 52 49 45 44 43 36 31 32 27 15 19 38 39 24 23 30 28 25 21 11 10 19 23 21 19 17 15 14 14 13 13 11 8 6 6 7 7 7 7 7 8 10
34 33 34 35 36 37 37 39 42 44 46 48 47 45 45 41 34 28 26 25 27 30 30 32 34 34 35 35 36 41 46 48 48 44 41 42 43 39 36 36 29 17 20 39 43 27 24 30 27 24 22 13 12 18 22 22 20 17 15 14 13 13 13 11 8 5 6 8 8 8 8 8 9 11
34 33 34 35 35 36 37 38 40 42 45 48 50 52 54 50 45 41 35 29 25 27 28 28 30 30 31 31 33 39 43 44 43 41 40 40 39 38 38 39 36 26 24 38 42 29 25 32 29 24 22 16 14 20 21 20 20 17 15 14 13 11 10 9 7 5 6 7 7 7 7 8 9 11
33 34 35 35 36 37 39 39 40 41 43 47 49 51 53 51 50 48 40 32 26 25 26 26 27 27 29 31 32 36 38 39 39 37 36 37 36 33 32 33 35 31 27 36 40 31 28 33 29 25 25 19 15 18 19 17 19 20 18 16 14 11 9 7 6 5 6 6 6 7 7 8 9 10
35 36 36 36 37 38 40 41 42 43 44 47 49 49 48 48 48 45 37 31 27 25 25 25 25 26 29 32 34 35 35 34 35 34 32 32 33 32 30 29 27 24 25 36 38 28 27 31 28 25 25 20 16 18 17 16 21 24 21 18 15 13 10 8 7 5 5 5 5 5 6 7 8 9
38 38 39 39 39 39 40 41 43 44 46 47 48 48 46 44 43 39 34 30 26 25 24 24 24 24 27 30 33 35 35 34 34 33 30 28 28 27 27 24 20 21 29 37 34 26 25 27 26 25 23 18 16 20 20 18 21 22 21 18 15 13 11 9 7 5 4 3 3 4 5 6 7 7
42 42 42 43 43 42 42 42 41 40 40 40 43 46 46 44 40 35 32 29 28 27 25 25 25 25 26 28 31 34 35 35 34 34 32 30 27 27 28 26 24 28 34 33 26 21 21 21 23 24 20 15 13 15 18 21 21 19 17 16 12 10 9 8 6 4 4 3 4 4 5 5 6 7
38 39 40 42 43 43 43 42 39 37 36 35 36 40 43 42 38 33 32 33 32 30 28 27 27 27 29 31 32 33 34 34 33 34 35 33 31 30 32 31 29 30 30 25 18 17 19 22 23 21 16 14 13 14 17 20 19 16 14 11 9 8 7 6 5 4 3 3 3 4 5 5 5 6
32 34 35 36 37 39 39 37 35 35 36 36 36 36 37 36 34 32 33 32 31 31 31 31 31 31 33 33 33 34 33 33 33 34 36 36 35 35 36 33 29 29 27 22 20 21 22 23 22 17 14 15 15 15 16 16 14 14 13 11 9 7 5 5 5 3 1 2 3 3 4 5 6 6
31 30 29 27 28 30 30 29 28 29 32 32 31 31 30 30 30 31 31 29 28 32 35 36 35 35 34 32 33 34 32 31 32 34 37 39 38 36 35 32 29 30 30 26 24 25 23 22 20 17 15 14 13 13 13 12 11 12 14 12 9 6 5 6 5 1 2 3 3 3 4 6 7 7
30 26 22 22 23 23 23 23 23 25 25 23 21 24 26 28 30 30 30 31 33 34 37 38 38 37 35 33 33 34 33 31 31 33 37 39 38 36 35 31 28 30 32 29 26 25 24 22 21 18 16 15 14 13 11 10 10 12 12 10 8 7 6 6 3 1 2 2 3 4 5 6 7 8
26 22 19 18 19 20 21 21 22 23 21 19 20 23 26 28 31 32 32 34 36 36 35 36 36 37 37 35 34 34 35 34 33 34 35 35 35 35 36 33 29 29 31 30 27 26 25 24 22 20 17 15 14 12 10 11 12 13 11 9 8 7 7 4 1 1 3 3 3 5 6 7 8 9
15 17 17 16 18 19 20 20 21 21 20 20 23 25 25 26 30 34 36 36 37 38 37 35 34 34 34 34 33 34 35 36 34 33 33 33 34 34 33 31 29 29 30 30 29 27 25 23 22 21 17 12 9 7 7 8 10 10 10 9 7 5 3 2 2 3 4 5 5 7 8 8 9 10
4 7 9 11 15 18 19 20 20 21 21 23 25 26 26 26 28 33 36 37 37 37 38 37 35 34 33 33 32 32 33 34 33 31 30 31 33 33 30 29 29 28 28 30 29 27 25 22 21 21 17 9 5 4 4 6 7 7 7 8 7 4 3 3 4 5 6 6 7 8 8 8 10 10
8 6 4 4 7 11 15 18 20 21 22 22 24 25 26 27 28 30 34 35 35 35 36 35 35 35 35 34 34 32 31 30 29 29 29 29 30 31 30 29 28 27 28 30 28 25 22 20 19 20 16 9 5 5 6 7 8 8 6 6 6 4 4 4 5 6 6 5 6 7 7 8 10 10
14 13 10 7 5 5 8 12 16 18 20 22 24 26 28 30 30 29 30 32 33 34 34 34 34 35 34 34 35 34 32 30 29 28 28 27 27 29 30 30 29 29 29 28 25 21 19 17 16 16 14 12 11 14 15 14 12 11 9 8 6 4 4 4 5 6 6 5 7 8 8 7 9 10
17 16 13 11 9 7 8 9 11 14 17 20 22 25 28 31 32 31 30 31 33 33 32 33 35 34 33 32 32 32 31 31 29 28 28 28 27 27 28 30 31 31 29 25 22 20 18 16 15 14 15 16 16 18 19 17 15 13 10 9 9 8 7 7 7 8 8 7 8 8 8 9 10 11
19 18 16 14 13 12 12 13 14 15 18 20 22 24 26 27 29 31 32 33 34 33 32 32 33 34 33 32 31 31 31 30 29 28 28 28 27 27 29 30 31 30 27 24 22 21 18 16 16 17 18 21 20 19 17 15 12 12 11 9 9 10 10 10 10 10 9 8 8 6 6 8 10 12
21 21 21 19 18 17 17 18 18 19 20 21 23 25 26 26 27 30 31 32 32 33 33 33 32 32 31 30 30 31 31 31 31 30 29 28 28 29 29 28 28 28 26 24 23 22 19 17 18 19 18 17 16 15 14 13 13 14 12 9 8 8 9 9 10 9 7 6 6 5 6 8 8 9
22 22 22 22 22 22 21 21 21 21 22 22 23 25 27 28 29 30 31 31 31 32 32 31 31 31 30 30 31 31 31 32 32 31 29 28 28 28 28 27 27 28 28 26 25 23 21 20 19 17 15 13 13 15 16 17 17 16 12 9 7 7 7 7 8 8 6 4 4 5 8 9 8 8
22 23 23 23 24 24 23 23 23 23 23 24 25 25 27 27 28 29 30 31 31 31 31 30 30 30 30 31 32 31 31 32 33 32 29 28 28 29 29 28 28 29 30 29 27 24 20 18 15 14 14 14 15 16 17 18 18 15 12 10 8 7 7 6 6 8 7 5 6 9 11 11 10 11
22 23 23 24 25 25 25 25 26 26 25 26 27 27 27 27 28 29 30 30 31 31 31 30 30 30 31 33 33 32 32 33 33 31 29 28 30 30 30 29 29 29 29 29 26 21 17 16 16 15 15 16 15 15 17 18 16 13 11 9 8 8 7 6 6 7 8 8 10 12 12 12 13 15
Wind_Direction
264 263 260 253 249 247 244 240 239 238 236 234 235 235 230 226 232 247 251 247 224 232 249 256 246 230 213 203 200 196 193 198 200 199 199 198 198 202 204 202 201 203 202 198 195 192 189 189 189 190 193 192 193 198 203 208 211 213 215 219 225 230 236 252 270 272 271 279 289 300 310 318 325 330
264 262 259 255 252 250 247 244 241 239 238 237 237 238 234 229 228 229 239 249 242 237 237 252 268 248 200 194 191 189 191 192 192 194 196 197 197 200 203 202 201 203 202 198 195 194 192 191 192 192 193 195 197 202 207 210 211 211 211 214 220 223 231 252 264 264 268 281 292 302 312 319 325 329
265 262 260 257 253 252 250 246 244 239 236 237 236 236 234 230 228 228 231 244 244 242 227 229 253 254 191 187 184 185 188 186 188 193 195 197 198 198 200 201 202 202 201 198 196 195 194 193 193 194 196 198 201 207 211 211 209 209 209 212 216 219 229 247 255 259 266 277 288 298 308 316 323 327
267 262 261 259 255 252 250 247 246 242 238 237 236 234 232 230 230 229 229 237 246 245 236 224 240 249 215 188 179 179 181 179 186 195 196 197 197 195 197 200 202 202 200 198 197 196 195 195 195 196 198 202 207 211 212 211 209 208 209 212 215 217 229 243 243 248 259 269 280 291 303 313 320 323
269 265 261 260 257 254 250 246 244 242 240 238 236 235 231 229 230 228 227 230 242 247 245 240 244 244 230 202 185 180 174 172 182 194 196 196 194 193 195 198 200 201 200 199 198 197 196 196 197 198 201 207 212 213 212 210 209 209 210 213 216 219 228 238 237 241 250 263 275 287 300 310 316 318
272 271 266 262 258 255 252 248 244 240 239 237 235 233 229 227 228 226 225 227 233 242 240 241 247 239 219 209 200 189 178 173 181 192 194 194 195 195 195 196 198 201 202 201 199 198 198 198 199 200 204 212 214 212 210 209 208 210 213 216 219 222 228 234 236 239 245 258 273 285 297 306 312 314
272 274 273 269 264 259 257 253 248 242 239 237 236 234 229 227 228 227 225 225 229 236 233 234 240 236 217 208 205 197 185 179 185 193 194 192 193 194 194 195 198 200 201 202 201 201 201 200 202 203 208 214 214 211 209 209 210 213 215 219 223 225 229 235 236 239 246 257 271 283 292 301 306 310
267 270 273 273 270 265 263 259 252 245 242 239 238 237 233 230 231 230 227 224 226 231 231 232 233 230 218 204 199 195 186 181 186 190 188 186 188 190 191 195 199 200 202 203 203 204 203 202 204 207 211 214 212 210 209 210 212 215 219 224 228 229 231 236 239 241 248 258 270 280 287 294 300 307
265 265 268 271 271 267 266 266 261 252 245 242 241 241 238 233 232 231 228 226 225 226 227 229 228 227 217 201 193 189 181 174 178 182 181 181 182 184 187 194 199 199 200 203 205 205 205 206 208 210 213 213 209 209 211 212 214 219 224 228 232 234 235 238 242 244 250 260 268 273 281 289 297 303
266 266 265 266 268 267 264 264 266 265 256 247 242 242 241 238 234 232 228 224 223 223 225 225 221 214 203 192 187 186 182 173 168 171 173 175 179 184 188 193 197 198 198 201 203 204 205 208 210 211 211 210 208 209 211 214 218 221 226 231 234 236 238 241 244 247 254 263 267 271 279 284 294 303
262 263 264 264 265 266 265 262 262 265 266 260 250 243 242 242 240 237 231 222 218 219 222 222 216 203 193 191 188 183 179 174 170 168 163 163 175 188 194 195 194 195 197 198 200 203 206 208 209 210 210 209 210 211 213 217 221 224 228 233 235 237 241 243 245 250 258 265 268 273 279 283 292 301
266 264 262 262 263 263 265 265 261 260 262 265 263 253 246 242 242 242 236 225 218 217 217 216 212 200 191 193 191 178 171 168 171 173 167 167 177 187 194 197 194 192 194 196 197 201 204 205 206 206 208 210 211 213 216 220 222 225 229 233 236 240 242 243 247 254 261 265 270 273 278 285 292 299
274 270 266 264 262 262 262 264 264 262 260 260 263 263 259 250 245 244 240 229 218 217 218 216 208 199 193 193 188 180 178 174 173 175 173 174 179 181 185 194 195 194 194 194 194 198 201 201 202 204 206 208 210 213 217 220 222 226 229 233 238 242 242 244 248 255 261 265 270 274 278 285 292 298
279 276 274 270 267 264 263 263 264 265 264 261 261 262 264 263 257 251 245 237 225 217 217 216 207 197 195 193 188 186 189 184 175 174 175 173 171 171 173 185 195 197 195 191 191 196 200 201 203 206 208 209 210 212 215 218 221 225 229 235 239 239 240 243 248 256 261 264 267 272 278 283 291 298
282 280 278 276 274 271 268 265 264 265 265 264 261 259 260 261 262 260 256 250 240 225 215 216 215 207 198 194 191 188 188 185 179 177 177 171 167 170 173 178 192 198 196 191 190 195 200 203 205 207 209 212 213 214 217 219 222 227 232 234 233 231 237 245 252 257 258 261 267 270 276 284 291 297
276 278 279 277 275 273 272 270 267 265 265 266 263 259 257 258 260 260 260 258 251 236 221 217 219 216 205 195 191 187 184 184 182 180 178 175 174 178 182 183 190 196 195 190 189 194 199 202 205 206 209 214 216 217 220 221 223 229 231 227 224 230 246 254 256 258 257 260 267 270 277 286 292 296
269 271 273 274 272 271 271 272 270 267 267 269 267 260 257 257 257 258 259 259 257 249 235 225 223 218 209 200 196 190 186 183 181 180 181 181 182 186 190 192 191 191 191 189 186 192 199 200 203 206 209 214 217 219 223 223 222 225 226 224 228 238 253 262 259 257 257 259 266 273 280 288 293 296
267 265 266 268 269 268 267 268 269 268 267 268 269 264 256 252 253 255 257 258 259 256 245 236 233 227 216 207 201 194 190 187 184 184 184 186 189 194 195 196 194 189 189 188 184 186 197 198 200 206 209 214 220 222 221 221 219 220 226 230 237 245 255 265 262 256 256 261 269 276 281 288 293 296
266 264 264 264 265 265 264 263 263 265 266 268 274 276 267 254 250 250 253 255 255 254 248 242 240 236 224 212 202 195 195 194 192 190 189 188 190 192 190 188 189 189 189 189 184 183 193 194 196 203 207 213 222 223 219 218 218 222 229 235 241 249 258 263 258 252 255 261 268 274 281 289 295 304
266 264 263 262 261 261 261 259 259 262 265 268 274 280 280 272 258 249 249 252 254 252 249 245 245 244 237 222 208 199 198 198 193 189 188 186 182 178 173 172 178 184 188 191 190 183 184 190 192 194 199 208 217 218 213 210 215 223 229 234 241 248 254 253 246 246 252 261 269 275 283 293 308 326
269 267 264 261 259 258 258 257 258 259 262 266 270 273 277 279 274 261 251 249 252 252 250 247 244 244 242 233 219 210 204 199 192 184 180 180 177 173 169 168 176 182 185 190 193 186 177 184 187 184 190 204 211 210 204 202 210 222 225 232 240 243 244 240 236 242 257 266 270 275 288 304 324 341
269 267 265 261 258 257 257 257 256 256 257 261 265 268 272 274 274 270 259 249 249 249 247 245 240 236 236 232 220 212 207 198 190 186 186 183 179 176 175 171 169 177 184 188 190 186 176 180 181 171 169 190 201 199 196 198 208 218 221 228 236 234 230 229 230 245 265 266 265 275 298 311 323 334
268 265 264 261 258 257 258 257 256 254 254 256 259 263 267 267 267 268 265 256 249 244 240 237 232 227 226 224 215 208 205 199 195 196 197 190 183 181 177 167 157 162 188 190 188 184 177 177 178 170 158 162 190 196 196 199 208 216 218 221 226 222 217 218 226 247 261 255 258 273 287 296 304 316
264 262 261 260 258 257 256 255 254 253 253 254 256 258 261 261 260 265 273 266 251 244 238 229 222 218 215 212 207 202 200 198 198 200 200 194 188 184 175 167 166 172 189 188 185 182 177 176 177 180 175 157 165 187 197 200 202 209 215 214 212 206 205 213 223 241 255 251 257 270 272 279 291 302
260 259 259 258 258 256 253 251 251 250 250 250 252 254 255 256 255 260 276 277 252 236 230 220 214 212 208 202 198 195 195 196 196 198 200 195 190 187 180 175 175 174 182 185 184 177 171 173 175 179 180 169 153 170 188 198 199 203 209 207 203 199 203 215 223 241 262 257 259 267 267 277 296 303
257 257 257 258 258 256 253 251 249 249 249 248 248 249 251 253 254 254 266 277 254 223 210 205 202 202 200 195 190 190 192 193 194 197 200 196 191 190 190 186 183 184 184 182 181 178 172 173 174 173 173 175 168 166 175 189 197 200 199 199 204 205 205 210 220 243 260 258 267 277 275 288 307 309
260 259 259 259 258 256 253 250 249 248 248 247 246 248 249 251 252 252 259 268 251 214 195 191 187 184 185 183 182 184 186 187 189 192 195 192 189 190 192 191 193 197 190 176 176 182 181 176 175 172 170 172 169 165 171 183 190 193 194 196 203 209 207 207 220 243 252 257 279 296 299 308 318 318
262 260 259 259 258 256 252 248 247 247 247 246 246 247 248 250 250 249 252 254 237 207 188 183 178 174 175 175 176 178 179 180 183 184 184 185 187 188 189 189 191 196 183 170 171 179 179 176 177 175 173 173 167 168 179 184 178 181 188 190 196 207 209 202 207 224 240 255 275 292 307 315 318 318
265 262 261 260 258 255 251 246 244 244 247 248 248 247 247 247 246 243 243 238 220 195 181 177 171 168 169 170 171 173 173 174 176 176 173 173 176 179 177 174 175 177 171 166 166 168 168 171 175 175 177 188 188 181 182 175 167 174 183 182 185 197 199 192 196 215 233 247 259 275 297 307 309 310
269 266 263 260 256 252 248 244 242 244 249 252 252 250 246 243 240 235 231 221 202 183 175 169 162 158 160 162 164 166 167 168 169 170 166 161 161 165 162 154 153 161 161 157 155 159 163 168 172 171 175 193 195 177 164 156 154 161 169 166 163 171 180 184 193 203 205 221 257 291 312 320 320 321
269 267 265 261 254 248 245 244 244 248 255 262 261 252 243 237 233 227 219 210 196 182 170 160 154 152 154 156 157 158 158 158 161 165 162 152 148 152 150 142 139 147 153 150 145 149 156 163 168 169 167 164 150 134 136 143 146 150 157 159 155 152 158 165 164 165 194 238 293 329 341 341 337 339
270 270 267 260 249 242 241 245 248 252 259 266 262 247 234 228 223 215 209 204 190 174 160 150 148 149 150 152 153 152 153 152 153 159 158 149 144 145 143 136 133 136 141 143 142 142 147 155 161 163 160 151 138 127 127 129 135 147 156 158 156 151 153 159 153 147 226 323 351 358 353 350 350 356
271 269 259 243 232 230 233 239 246 251 256 256 247 231 217 209 202 196 192 183 168 159 154 150 148 148 149 150 149 148 147 146 149 153 152 147 144 144 140 136 135 135 134 134 137 139 142 147 151 151 150 145 138 136 133 123 125 142 146 144 147 147 145 148 143 109 343 356 18 9 357 359 1 8
265 258 241 223 217 218 221 227 234 239 238 229 211 197 189 184 179 175 171 164 158 155 153 151 150 149 148 148 148 146 143 142 145 148 147 146 145 143 138 135 135 135 133 132 136 140 140 141 142 142 143 142 135 130 132 131 132 135 134 134 138 129 116 120 124 63 10 28 29 359 352 4 12 11
253 235 218 211 210 209 210 215 219 219 213 195 173 166 168 168 166 162 160 159 156 153 150 149 150 150 150 151 150 148 144 143 144 144 144 145 144 142 139 138 138 139 139 138 139 140 140 143 143 139 135 135 127 114 111 121 129 131 127 123 121 113 102 96 104 74 53 43 23 2 6 17 15 5
235 214 205 201 198 198 201 206 206 200 189 175 163 157 155 156 158 159 159 159 156 152 149 148 148 149 150 151 149 148 146 144 143 143 144 144 142 139 139 139 140 143 145 142 140 140 142 147 150 143 132 126 123 115 108 115 127 136 133 121 114 118 116 100 85 72 58 44 32 29 29 22 8 359
185 192 202 200 196 196 195 194 192 185 175 166 159 154 151 150 153 155 157 157 155 152 150 150 149 149 150 148 146 146 145 144 143 143 143 143 141 138 138 140 144 148 145 138 136 138 141 144 148 145 138 131 128 124 119 119 126 140 144 134 124 127 131 109 81 67 65 56 37 30 27 13 2 357
68 87 113 160 190 199 194 186 181 176 169 161 154 149 147 146 147 149 151 151 149 148 148 148 147 149 150 148 146 144 143 143 142 142 143 144 142 141 141 144 147 144 136 131 132 137 140 145 153 158 159 161 157 146 139 132 127 125 130 134 133 130 131 128 103 75 68 57 33 29 31 16 1 357
54 64 71 84 115 160 176 174 172 167 161 156 151 147 145 144 144 144 144 144 144 145 145 146 147 149 150 149 147 145 144 144 143 143 144 144 144 144 145 144 140 134 130 130 133 138 143 150 158 164 165 162 163 165 158 145 135 126 110 94 90 95 111 127 117 92 77 62 44 43 40 14 358 1
57 63 67 77 93 111 128 140 149 152 148 146 146 145 143 143 143 142 141 140 140 141 143 145 147 148 148 148 147 145 143 143 143 143 144 145 147 149 146 139 133 130 128 127 128 132 137 138 136 136 132 127 136 150 147 133 131 135 121 88 67 64 68 80 90 90 83 70 56 46 27 5 3 12
58 63 68 79 90 100 111 121 128 133 134 135 136 137 137 138 139 139 140 140 140 140 141 143 144 145 146 148 148 144 141 141 142 141 143 145 146 145 139 131 127 126 123 119 120 124 126 125 125 127 125 122 128 136 134 127 136 149 140 110 80 69 66 67 72 77 76 67 61 51 19 8 13 17
58 62 66 75 84 90 100 109 115 118 121 124 127 129 130 131 132 133 134 136 137 138 138 139 142 143 144 146 147 144 141 140 139 139 141 141 139 135 130 125 123 124 122 121 124 127 126 125 127 126 122 125 132 133 128 133 150 157 147 123 93 75 69 66 63 62 55 40 39 37 16 11 15 13
60 65 70 76 82 86 91 98 105 109 113 116 120 123 125 126 127 128 129 130 132 134 135 137 139 139 139 140 141 139 137 135 135 135 136 136 133 128 124 122 123 126 126 124 126 127 123 122 125 122 113 114 123 120 115 121 132 137 132 114 85 65 65 68 56 41 22 4 20 36 27 20 19 9
60 67 73 78 83 86 89 93 99 104 108 111 114 117 119 121 123 125 126 128 129 131 133 134 134 133 132 133 133 132 131 131 131 132 132 131 128 125 124 124 125 127 127 125 125 125 121 119 124 122 114 113 118 116 110 107 107 106 104 97 79 61 63 68 47 27 29 52 58 45 38 37 33 19
60 67 71 76 81 85 88 93 98 101 104 107 109 111 113 115 117 120 122 124 126 128 128 129 128 127 128 129 129 128 127 126 127 128 129 127 125 125 127 128 127 127 127 127 127 126 124 122 123 122 116 113 113 113 111 108 103 98 94 91 84 74 68 64 45 35 52 72 59 40 41 49 40 26